Location: Balsareny
(41.8670°N, 1.8830°E)
Time: 23:33:56
(UTC+02:00)

X-37B - Pass Details

Date: 27 June 2021
Orbit: 383 x 392 km, 45.0° (Epoch: 01 July)

Event Time Altitude Azimuth Distance (km) Brightness Sun altitude
Rises 23:24:25 0° 276° (W) 2,255 5.1 -16.1°
Reaches altitude 10° 23:26:32 10° 283° (WNW) 1,401 4.1 -16.3°
Maximum altitude 23:29:34 44° 358° (N) 540 1.7 -16.6°
Enters shadow 23:32:10 13° 70° (ENE) 1,229 3.0 -16.9°
